Location: Владивосток
(43.1151°N, 131.8856°E)
Time: 18:22:47
(UTC+10:00)

SPROUT - Pass Details

Date: 10 July 2022
Orbit: 588 x 598 km, 97.9° (Epoch: 17 August)

Event Time Altitude Azimuth Distance (km) Brightness Sun altitude
Exits shadow 02:04:59 85° 306° (NW) 598 ? -23.7°
Drops below altitude 10° 02:09:05 10° 346° (NNW) 1,929 ? -23.5°
Sets 02:11:16 0° 347° (NNW) 2,836 ? -23.4°
